Regional Weather Roundup
Issued by NWS Kansas City/Pleasant Hill, MO

Home | Current Version | Previous Version | Graphics & Text | Print | Product List | Glossary Off
Versions: 1 2 3 4 5 6 7 8 9 10 11 12 13 14 15 16 17 18 19 20 21 22 23 24 25 26 27

000
ASUS43 KEAX 221010
RWREAX

WEATHER ROUNDUP FOR EASTERN KANSAS AND NORTHWEST MISSOURI
NATIONAL WEATHER SERVICE KANSAS CITY/PLEASANT HILL MO
500 AM CDT THU JUN 22 2017

KSZ040-057-103>105-MOZ028-029-037-043-221100-
...KANSAS CITY METROPOLITAN AREA...

CITY           SKY/WX    TMP DP  RH WIND       PRES   REMARKS
K.C. INTL      MOCLDY    72  63  73 S9        29.82S
K.C. DOWNTOWN  PTCLDY    73  64  73 S9        29.80F
LEES SUMMIT    PTCLDY    72  66  81 S10       29.83F
OLATHE - IXD   PTCLDY    68  64  87 S9        29.82F
OLATHE - OJC   PTCLDY    67  64  90 S5        29.82F
LAWRENCE       CLOUDY    70  66  87 SE3       29.81F

$$

MOZ001>008-011>017-020>025-030>033-038>040-044>046-053-054-221100-
...NORTHERN AND CENTRAL MISSOURI...

CITY           SKY/WX    TMP DP  RH WIND       PRES   REMARKS
ST. JOSEPH     PTCLDY    73  66  78 S10       29.78F
MOSBY          CLOUDY    72  63  73 CALM      29.82S
WARRENSBURG    PTCLDY    68  63  83 S5        29.83F
WHITEMAN AFB   PTCLDY    69  69 100 S9        29.82F
CLINTON        CLEAR     70  66  88 S5        29.85S
SEDALIA        PTCLDY    69  68  96 S8        29.86S
WARSAW         NOT AVBL
CHILLICOTHE      N/A     72  65  78 S7        29.83F
KIRKSVILLE     CLEAR     70  65  84 SW6       29.84S

$$

MOZ041-047>049-056>058-063>065-088>090-097-221100-
...EASTERN AND SOUTHERN MISSOURI...

CITY           SKY/WX    TMP DP  RH WIND       PRES   REMARKS
ST. LOUIS INTL PTCLDY    77  67  71 S8        29.90S
SPIRIT OF STL  PTCLDY    73  68  84 S5        29.88F
COLUMBIA       CLOUDY    70  68  93 S8        29.86F
JEFFERSON CITY PTCLDY    72  67  84 SE3       29.86F
ROLLA          CLOUDY    68  67  96 SE8       29.88F
OSAGE BEACH    PTCLDY    67  65  93 S3        29.87F
SPRINGFIELD    CLOUDY    72  68  87 SE9       29.86F
BRANSON        CLOUDY    70  70 100 CALM      29.88F
JOPLIN         MOCLDY    71  68  90 SE5       29.84F
WEST PLAINS    CLOUDY    71  69  93 E5        29.91F FOG

$$

IAZ060-094-KSZ022-034>040-054-083-096-NEZ052-066-093-221100-
...KANSAS...SOUTHEAST NEBRASKA AND IOWA...

CITY           SKY/WX    TMP DP  RH WIND       PRES   REMARKS
TOPEKA         CLOUDY    71  65  81 S3        29.80S
MANHATTAN      CLOUDY    74  60  61 S13       29.75F
EMPORIA        CLEAR     68  63  84 S10       29.80R
CHANUTE        CLEAR     67  64  90 SE7       29.81F
WICHITA        MOCLDY    68  64  87 S7        29.79R
OMAHA          CLOUDY    79  60  52 S15       29.66F
LINCOLN        CLOUDY    77  60  55 S12       29.69R
FALLS CITY     CLOUDY    74  60  61 S15       29.73F
LAMONI         PTCLDY    72  62  71 S14G21    29.79F
DES MOINES     PTCLDY    76  63  64 S18       29.71F

$$





USA.gov is the U.S. government's official web portal to all federal, state and local government web resources and services.